Tracking 19193 objects as of 22-Jun-2018
HD Live streaming from Space Station
objects crossing your sky now

FENGYUN 1C DEB

Track FENGYUN 1C DEB now!
10-day predictions


NORAD ID: 39540
Int'l Code: 1999-025EWH
Perigee: 841.3 km
Apogee: 1,508.6 km
Inclination: 106.2 °
Period: 108.7 minutes
Semi major axis: 7545 km
RCS: Unknown
Launch date: May 10, 1999
Source: People's Republic of China (PRC)
Launch site: Taiyaun Space Center, China (TSC)

Note: This is SATELLITE DEBRIS
aabbcc
Your satellite tracking list
Your tracking list is empty




NASA's NSSDC Master Catalog

Two Line Element Set (TLE):
1 39540U 99025EWH 18151.46382240  .00000436  00000-0  72349-3 0  9992
2 39540 106.1794 250.4725 0442109 329.6461  86.9741 13.24440571325597
Source of the keplerian elements: AFSPC